This demonstration page uses our WeatherBlox Daily Observations layout. Learn more.

Left ArrowRight Arrow

47.50024, -111.30081

Hourly Observations for June 29, 2020

Temp ( °F °C ) Dew Point ( °F °C ) Humidity (%) Winds ( mph kmh ) Pressure ( in mb ) Visibility ( mi km ) Precip ( " mm )
12:27 am 00:27 Cloudy with Light Rain 50 10 47 8.3 89 89 N 7 11 29.71 1006 10 16 0.00 0.00
12:53 am 00:53 Cloudy with Light Rain 50 10 46 7.8 86 86 N 6 9 29.73 1007 10 16 0.01 0.25
1:03 am 01:03 Cloudy with Light Rain 50 10 47 8.3 89 89 N 5 7 29.72 1006 10 16 0.00 0.00
1:53 am 01:53 Cloudy with Light Rain 50 10 47 8.3 89 89 N 5 7 29.74 1007 8 13 0.05 1.27
2:21 am 02:21 Cloudy with Light Rain 50 10 47 8.3 89 89 N 9 15 29.73 1007 7 11 0.02 0.51
2:31 am 02:31 Cloudy with Rain 49 9.4 47 8.3 93 93 N 9 15 29.74 1007 7 11 0.04 1.02
2:53 am 02:53 Cloudy with Light Rain 49 9.4 47 8.3 93 93 N 10 17 29.75 1007 7 11 0.07 1.78
3:08 am 03:08 Cloudy with Light Rain 49 9.4 46 7.8 90 90 N 12 19 29.74 1007 8 13 0.02 0.51
3:44 am 03:44 Cloudy with Light Rain 49 9.4 46 7.8 90 90 N 13 20 29.73 1007 10 16 0.03 0.76
3:53 am 03:53 Cloudy with Light Rain 49 9.4 46 7.8 90 90 N 13 20 29.73 1007 10 16 0.03 0.76
4:02 am 04:02 Cloudy with Light Rain 49 9.4 46 7.8 90 90 N 13 20 29.73 1007 10 16 0.00 0.00
4:29 am 04:29 Cloudy with Light Rain 49 9.4 47 8.3 93 93 N 12 19 29.74 1007 9 14 0.01 0.25
4:43 am 04:43 Cloudy with Light Rain 49 9.4 47 8.3 93 93 N 10 17 29.74 1007 6 10 0.03 0.76
4:53 am 04:53 Cloudy with Light Rain 49 9.4 47 8.3 93 93 N 10 17 29.73 1007 6 10 0.04 1.02
5:53 am 05:53 Cloudy with Light Rain 49 9.4 47 8.3 93 93 N 9 15 29.75 1007 6 10 0.09 2.29
6:53 am 06:53 Cloudy with Rain 49 9.4 47 8.3 93 93 N 12 19 29.77 1008 3 5 0.11 2.79
7:53 am 07:53 Cloudy with Light Rain 50 10 48 8.9 93 93 N 10 17 29.78 1008 6 10 0.10 2.54
8:28 am 08:28 Cloudy with Light Rain 50 10 48 8.9 93 93 N 13 20 29.75 1007 6 10 0.01 0.25
8:53 am 08:53 Cloudy with Light Rain 50 10 48 8.9 93 93 N 13 20 29.80 1009 9 14 0.05 1.27
9:53 am 09:53 Cloudy with Light Rain 51 10.6 48 8.9 89 89 N 10 17 29.82 1010 3 5 0.09 2.29
10:39 am 10:39 Cloudy with Light Rain 52 11.1 49 9.4 89 89 N 14 22 29.76 1008 9 14 0.07 1.78
10:53 am 10:53 Cloudy with Light Rain 52 11.1 49 9.4 89 89 N 12 19 29.82 1010 10 16 0.08 2.03
11:39 am 11:39 Cloudy with Light Rain 52 11.1 49 9.4 89 89 N 13 20 29.76 1008 8 13 0.01 0.25
11:53 am 11:53 Cloudy with Rain 52 11.1 49 9.4 89 89 N 12 19 29.81 1009 4 6 0.02 0.51
12:12 pm 12:12 Cloudy with Light Rain 53 11.7 50 10 89 89 N 13 20 29.74 1007 4 6 0.02 0.51
12:53 pm 12:53 Cloudy 53 11.7 50 10 89 89 N 12 19 29.81 1010 10 16 0.02 0.51
1:12 pm 13:12 Cloudy with Rain 53 11.7 50 10 89 89 NNE 10 17 29.76 1008 2 3 0.02 0.51
1:21 pm 13:21 Cloudy with Rain 52 11.1 50 10 93 93 NNE 12 19 29.77 1008 1 2 0.06 1.52
1:45 pm 13:45 Cloudy with Rain 50 10 48 8.9 93 93 N 12 19 29.79 1009 2 2 0.22 5.59
1:53 pm 13:53 Cloudy with Rain 51 10.6 49 9.4 92 92 N 12 19 29.83 1010 2 3 0.25 6.35
2:02 pm 14:02 Cloudy with Rain 52 11.1 49 9.4 89 89 NNW 14 22 29.77 1008 2 3 0.04 1.02
2:10 pm 14:10 Cloudy with Rain 52 11.1 50 10 93 93 N 13 20 29.77 1008 2 3 0.07 1.78
2:15 pm 14:15 Cloudy with Rain 52 11.1 49 9.4 89 89 N 13 20 29.77 1008 3 5 0.08 2.03
2:30 pm 14:30 Cloudy with Light Rain 53 11.7 49 9.4 86 86 N 8 13 29.76 1008 4 6 0.11 2.79
2:44 pm 14:44 Cloudy with Rain 53 11.7 50 10 89 89 N 10 17 29.76 1008 3 4 0.14 3.56
2:53 pm 14:53 Cloudy with Rain 52 11.1 50 10 93 93 N 10 17 29.83 1010 3 4 0.18 4.57
2:57 pm 14:57 Cloudy with Rain 52 11.1 50 10 93 93 N 9 15 29.78 1009 3 5 0.00 0.00
3:04 pm 15:04 Cloudy with Rain 53 11.7 50 10 89 89 N 10 17 29.77 1008 3 5 0.03 0.76
3:53 pm 15:53 Cloudy with Rain 53 11.7 50 10 89 89 NNW 8 13 29.84 1010 3 5 0.14 3.56
4:00 pm 16:00 Cloudy with Rain 53 11.7 50 10 89 89 NW 8 13 29.77 1008 2 3 0.02 0.51
4:18 pm 16:18 Cloudy with Rain 53 11.7 50 10 89 89 N 8 13 29.78 1009 3 5 0.08 2.03
4:40 pm 16:40 Cloudy with Rain 52 11.1 49 9.4 89 89 NE 3 6 29.80 1009 3 5 0.13 3.30
4:53 pm 16:53 Cloudy with Rain 52 11.1 50 10 93 93 Calm 29.84 1011 3 5 0.16 4.06
5:05 pm 17:05 Cloudy with Rain 53 11.7 50 10 89 89 W 3 6 29.78 1009 3 4 0.02 0.51
5:12 pm 17:12 Cloudy with Light Rain 53 11.7 50 10 89 89 W 6 9 29.78 1009 3 4 0.04 1.02
5:30 pm 17:30 Cloudy with Light Rain 53 11.7 50 10 89 89 VRB 6 9 29.78 1009 4 6 0.07 1.78
5:38 pm 17:38 Cloudy with Rain 53 11.7 51 10.6 93 93 NW 8 13 29.78 1009 3 5 0.08 2.03
5:40 pm 17:40 Cloudy with Rain 53 11.7 50 10 89 89 NNW 8 13 29.78 1009 3 4 0.08 2.03
5:51 pm 17:51 Cloudy with Light Rain 52 11 50 10 94 94 NW 6 9 29.79 1009 3 4 0.10 2.54
5:52 pm 17:52 Cloudy with Light Rain 52 11.1 50 10 93 93 WNW 7 11 29.84 1011 3 4 0.10 2.54
6:08 pm 18:08 Cloudy with Light Rain 53 11.7 50 10 89 89 W 7 11 29.78 1009 6 10 0.01 0.25
6:30 pm 18:30 Cloudy with Rain 52 11.1 50 10 93 93 W 7 11 29.79 1009 2 3 0.05 1.27
6:43 pm 18:43 Cloudy with Rain 52 11.1 50 10 93 93 WSW 8 13 29.79 1009 2 3 0.09 2.29
6:53 pm 18:53 Cloudy with Light Rain 52 11.1 50 10 93 93 SW 7 11 29.84 1011 2 3 0.10 2.54
7:00 pm 19:00 Cloudy with Light Rain 52 11.1 50 10 93 93 Calm 29.79 1009 2 3 0.01 0.25
7:13 pm 19:13 Cloudy with Rain 52 11.1 50 10 93 93 WSW 5 7 29.80 1009 2 3 0.03 0.76
7:17 pm 19:17 Cloudy with Heavy Rain 52 11.1 49 9.4 89 89 WSW 3 6 29.80 1009 1 2 0.06 1.52
7:53 pm 19:53 Cloudy with Light Rain 51 10.6 50 10 96 96 SW 13 20 29.84 1011 1 2 0.15 3.81
7:55 pm 19:55 Cloudy with Light Rain 51 10.6 50 10 96 96 SW 12 19 29.80 1009 2 3 0.01 0.25
8:34 pm 20:34 Cloudy with Rain 52 11.1 49 9.4 89 89 W 10 17 29.79 1009 2 3 0.09 2.29
8:53 pm 20:53 Cloudy with Light Rain 52 11.1 50 10 93 93 W 9 15 29.84 1011 2 3 0.12 3.05
9:03 pm 21:03 Cloudy with Light Rain 52 11.1 50 10 93 93 W 10 17 29.79 1009 5 8 0.02 0.51
9:19 pm 21:19 Cloudy with Light Rain 52 11.1 50 10 93 93 W 10 17 29.78 1009 10 16 0.02 0.51
9:53 pm 21:53 Cloudy with Rain 52 11.1 50 10 93 93 WSW 9 15 29.83 1010 2 3 0.04 1.02
10:20 pm 22:20 Cloudy with Light Rain 52 11.1 50 10 93 93 SW 9 15 29.79 1009 9 14 0.02 0.51
10:28 pm 22:28 Cloudy with Light Rain 52 11.1 50 10 93 93 SW 10 17 29.79 1009 10 16 0.02 0.51
10:40 pm 22:40 Cloudy with Light Rain 52 11.1 50 10 93 93 SW 9 15 29.79 1009 6 10 0.03 0.76
10:53 pm 22:53 Cloudy with Light Rain 51 10.6 49 9.4 92 92 SW 9 15 29.84 1010 4 6 0.04 1.02
11:07 pm 23:07 Cloudy with Light Rain 51 10.6 49 9.4 92 92 SW 13 20 29.80 1009 5 8 0.00 0.00
11:24 pm 23:24 Cloudy with Light Rain 51 10.6 49 9.4 92 92 WSW 14 22 29.80 1009 5 8 0.01 0.25
11:37 pm 23:37 Cloudy with Light Rain 51 10.6 49 9.4 92 92 WSW 12 19 29.80 1009 7 11 0.01 0.25
11:53 pm 23:53 Cloudy with Light Rain 50 10 48 8.9 93 93 SW 12 19 29.85 1011 7 11 0.02 0.51

Powered by AerisWeather